Regional Weather Roundup
Issued by NWS

Home | Current Version | Previous Version | Text Only | Print | Product List | Glossary Off
Versions: 1 2 3 4 5 6 7 8 9 10 11 12 13 14 15 16 17 18 19 20 21 22 23 24 25 26 27 28 29 30 31 32 33 34 35 36 37 38 39 40 41 42 43 44 45 46 47 48 49 50

000
ASUS43 KOAX 280902
RWRNE

WEATHER ROUNDUP FOR NEBRASKA
NATIONAL WEATHER SERVICE OMAHA NE
400 AM CDT MON JUL 28 2014

NOTES: SATELLITE DATA IS BEING USED TO AUGMENT CLOUD COVER ABOVE
       12000 FEET.
       "FAIR" INDICATES FEW OR NO CLOUDS BELOW 12,000 FEET WITH NO
       SIGNIFICANT WEATHER AND/OR OBSTRUCTIONS TO VISIBILITY.

  * THESE STATIONS DO NOT REPORT WEATHER SUCH AS RAIN...SNOW OR FOG.

NEZ001>004-019>022-054>056-281000-
NEBRASKA PANHANDLE

CITY           SKY/WX    TMP DP  RH WIND       PRES   REMARKS
SCOTTSBLUFF    CLEAR     62  50  64 E12       30.32F
ALLIANCE       CLEAR     54  47  77 E5        30.34S
CHADRON        CLEAR     59  51  75 N5        30.34R
KIMBALL        CLOUDY    62  49  63 SE5       30.34F
SIDNEY         CLEAR     60  47  61 SE8       30.35S
$$

NEZ057>060-069>072-079>082-281000-
SOUTHWEST NEBRASKA

CITY           SKY/WX    TMP DP  RH WIND       PRES   REMARKS
NORTH PLATTE   CLEAR     54  50  86 NE5       30.31S
IMPERIAL       PTCLDY    60  51  72 E7        30.32S
LEXINGTON      CLEAR     57  55  92 CALM      30.30S
MCCOOK         PTCLDY    60  52  74 NE5       30.29S
OGALLALA       CLEAR     55  50  84 CALM      30.33R
$$

NEZ005>010-023>029-035>040-094-281000-
NORTH CENTRAL NEBRASKA

CITY           SKY/WX    TMP DP  RH WIND       PRES   REMARKS
VALENTINE      CLEAR     52  49  89 CALM      30.33R
AINSWORTH      CLEAR     54  53  95 CALM      30.32F
BROKEN BOW     CLEAR     54  52  93 N5        30.30S
O`NEILL        CLEAR     53  50  89 W5        30.30S
ORD            CLEAR     53  52  96 CALM      30.29R
THEDFORD       CLEAR     54  51  90 CALM      30.34R
$$

NEZ041-046>049-061>064-073>077-083>087-281000-
SOUTH CENTRAL NEBRASKA

CITY           SKY/WX    TMP DP  RH WIND       PRES   REMARKS
GRAND ISLAND   CLEAR     58  55  90 N6        30.28S
AURORA         CLEAR     57  57 100 W3        30.27S
HASTINGS       CLEAR     60  55  83 NE5       30.27S
HEBRON         CLEAR     61  56  82 CALM      30.24S
HOLDREGE       CLEAR     58  56  91 NE5       30.29S
KEARNEY *      CLEAR     59  55  88 CALM      30.29R
YORK             N/A     55  55 100 NW6       30.26S
$$

NEZ011>018-030>034-042>045-281000-
NORTHEAST NEBRASKA

CITY           SKY/WX    TMP DP  RH WIND       PRES   REMARKS
NORFOLK        CLEAR     56  53  90 W7        30.26R
ALBION         CLEAR     55  53  94 CALM      30.28R
BLAIR          CLEAR     60  55  83 N7        30.21S
COLUMBUS *     CLEAR     57  52  82 N3        30.25R
FREMONT        CLEAR     60  56  88 N5        30.22S
WAYNE          PTCLDY    55  54  96 CALM      30.25R
$$

NEZ050>053-065>068-078-088>093-281000-
SOUTHEAST NEBRASKA

CITY           SKY/WX    TMP DP  RH WIND       PRES   REMARKS
LINCOLN        CLEAR     57  53  86 N3        30.24R
OMAHA EPPLEY   CLEAR     61  55  81 N8        30.21R
BEATRICE       CLEAR     57  56  96 N8        30.23S
NEBRASKA CITY  CLEAR     58  56  92 NW5       30.20S
PLATTSMOUTH    CLEAR     59  55  85 NW3       30.20S
$$

NEZ044-045-051>053-067-281000-
OMAHA AREA

CITY           SKY/WX    TMP DP  RH WIND       PRES   REMARKS
OMAHA EPPLEY   CLEAR     61  55  81 N8        30.21R
BLAIR          CLEAR     60  55  83 N7        30.21S
FREMONT        CLEAR     60  56  88 N5        30.22S
MILLARD        CLEAR     63  56  78 N7        30.21R
OFFUTT AFB     CLEAR     63  58  84 N8        30.19S
PLATTSMOUTH    CLEAR     59  55  85 NW3       30.20S
WAHOO          FAIR      58  55  88 NW3       30.22S
$$



USA.gov is the U.S. government's official web portal to all federal, state and local government web resources and services.